STARLINK-31424, 59247

Orbit data source: Space-Track

STARLINK-31424, 59247 is a payload satellite owned by SpaceX/Seattle (US) in LEO that was launched on Sat, 16 Mar 2024 UTC via an FALCON 9 launch vehicle from the Air Force Eastern Test Range (AFETR). Payload-class satellites include a variety of spacecraft equipped with specific instruments for various scientific and technological missions. These include communications satellites like Starlink; space stations such as the ISS; scientific satellites like the Hubble; Earth observation satellites from companies like Planet Labs, Umbra, and HawkEye 360; GPS; miniature CubeSats for education and research; and military/defense satellites.

Loading next visibility...
Identifier
59247, 2024-049S
Orbit
LEO
Country
Flag of USUS
Related business
Manufacturer
SpaceX/Seattle
Mission
Operational Commercial Communications
Bus & Motor
STARLINK V2M, Unknown motor
Mass
730 kg wet, ~700 kg dry
Launch date (UTC)
2024-03-16 (2 years ago)
Launch vehicle
FALCON 9
Launch site
Air Force Eastern Test Range (AFETR)
Object type
Payload
Rocket body
Debris
Shape & HBR
Box + 2 Pan, 17.7 m
Radar Cross Section
33.884 m², Large (>1 m²)

Expand to show TLE details & history
Last TLE update: 2 days ago

TLE from 2 days ago
0 STARLINK-31424
1 59247U 24049S   26171.32969286  .00001796  00000-0  74806-4 0  9990
2 59247  43.0011 280.4048 0000785 225.8894 134.1893 15.27560770128136
Epoch: 2026-06-20T07:54Z
TLE epoch observation values (Epoch: 2026-06-20T07:54:45.463Z)
Latitude
-0.00001°
Longitude
-106.83051°
Altitude
483.258 km
Speed
7.625 km/s
True Right ascension
18h 41m 37s
True Declination
0° 00' 00"
Sunlit
Object was in full shadow at epoch
Visualization orbit readout
Latitude
Unknown
Longitude
Unknown
Altitude
Unknown
Speed
Unknown
Apparent Right ascension
Unknown
Apparent Declination
Unknown
Sunlit
N/A
Visualization observer readout
Local Sidereal Time
21:28:41
Azimuth
Unknown
Elevation
Unknown
Doppler factor
Unknown
Orbital elements
Apogee altitude
485.59 km
Perigee altitude
484.513 km
Semi-major axis
6,863.189 km
Eccentricity
0.00008
Inclination
43.0011°
RAAN
280.4048°
Arg. of periapsis
225.8894°
True anomaly
134.19575°
Mean anomaly
134.1893°
Eccentric anomaly
134.19252°
Mean motion
3.81728 °/min
Orbital period
94.31 mins
BSTAR
0.000074806
Loading maneuver chart data...
Computing Atmospheric mass density...
Loading historical data...
Loading historical data...
Loading historical data...
Loading historical data...
Loading historical data...
Loading historical data...
Loading historical data...

Documentation

Showing up to 5 results
|